User: anonymous   Login
Location: Wayah Bald
(35.1806°N, 83.5603°W)
Time: 13:12:33
(UTC-05:00)
Language:

Meteor 1-27 Rocket - Orbit

View from above orbital plane
View from above orbital plane
View from above satellite
View from above satellite

Ground track
Ground track

The orbit data is extracted from the following two-line orbital elements,

1 09904U 77024B   17019.75184945 -.00000052  00000-0 -38431-4 0  9995
2 09904  81.2631 273.2691 0055258  27.8016 332.6087 14.06841987 41938
Epoch (UTC): 19 January 2017 18:02:39
Eccentricity: 0.0055258
inclination: 81.2631°
perigee height: 830 km
apogee height: 910 km
right ascension of ascending node: 273.2691°
argument of perigee: 27.8016°
revolutions per day: 14.06841987
mean anomaly at epoch: 332.6087°
orbit number at epoch: 4193

The dashed part of the orbit path shows where the satellite is in the earth's shadow,  

DLR